Showing default

LYRA-1, 62664

Orbit data source: Space-Track

LYRA-1, 62664 is a payload satellite owned by Echostar AU (AU) in SSO that was launched on Tue, 14 Jan 2025 UTC via an FALCON 9 launch vehicle from the Air Force Western Test Range (AFWTR). Payload-class satellites include a variety of spacecraft equipped with specific instruments for various scientific and technological missions. These include communications satellites like Starlink; space stations such as the ISS; scientific satellites like the Hubble; Earth observation satellites from companies like Planet Labs, Umbra, and HawkEye 360; GPS; miniature CubeSats for education and research; and military/defense satellites.

Loading next visibility...
Identifier
62664, 2025-009BH
Orbit
SSO
Country
Flag of AUAU / AUS
Related business
Manufacturer
Astro Digital
Mission
Operational Commercial Communications
Bus & Motor
CORVUS XL, Unknown motor
Mass
74 kg wet, 74 kg dry
Launch date (UTC)
2025-01-14 (1 year ago)
Launch vehicle
FALCON 9
Launch site
Air Force Western Test Range (AFWTR)
Object type
Payload
Rocket body
Debris
Shape & HBR
Box, 1.0 m
Radar Cross Section
0.425 m², Medium (>0.1 m² and < 1m²)

Expand to show TLE details & history
Last TLE update: 1 day ago

TLE from 1 day ago
0 LYRA-1
1 62664U 25009BH  26170.77034218  .00007846  00000-0  37886-3 0  9998
2 62664  97.3973 245.2996 0009351 175.6590 184.4728 15.18886317 78818
Epoch: 2026-06-19T18:29Z
TLE epoch observation values (Epoch: 2026-06-19T18:29:17.564Z)
Latitude
0.00005°
Longitude
59.98186°
Altitude
518.716 km
Speed
7.601 km/s
True Right ascension
16h 21m 11s
True Declination
0° 00' 00"
Sunlit
Object was in full shadow at epoch
Visualization orbit readout
Latitude
Unknown
Longitude
Unknown
Altitude
Unknown
Speed
Unknown
Apparent Right ascension
Unknown
Apparent Declination
Unknown
Sunlit
N/A
Visualization observer readout
Local Sidereal Time
07:21:55
Azimuth
Unknown
Elevation
Unknown
Doppler factor
Unknown
Orbital elements
Apogee altitude
512.61 km
Perigee altitude
499.735 km
Semi-major axis
6,884.309 km
Eccentricity
0.00094
Inclination
97.3973°
RAAN
245.2996°
Arg. of periapsis
175.659°
True anomaly
184.46445°
Mean anomaly
184.4728°
Eccentric anomaly
184.46863°
Mean motion
3.79973 °/min
Orbital period
94.74 mins
BSTAR
0.00037886
Loading maneuver chart data...
Computing Atmospheric mass density...
Loading historical data...
Loading historical data...
Loading historical data...
Loading historical data...
Loading historical data...
Loading historical data...
Loading historical data...

Documentation

Showing up to 5 results
|